This is the latest recevied weather packets stored in our database for station/object WX5HOT. If no packets are shown the sender has not sent any weather packets the latest 10 day(s).
| Time | Temp. | Humidity | Pressure | Rain* | Wind** | Luminosity | Snow |
|---|---|---|---|---|---|---|---|
| 1777718007 | 11.11° C | 71% | 1068.4 hPa | 0 mm | - | 0 W/m² | - |
| 1777717704 | 11.11° C | 74% | 1068.3 hPa | 0 mm | - | 0 W/m² | - |
| 1777717400 | 11.11° C | 75% | 1068.4 hPa | 0 mm | - | 0 W/m² | - |
| 1777717098 | 11.11° C | 74% | 1068.3 hPa | 0 mm | - | 0 W/m² | - |
| 1777716796 | 11.11° C | 74% | 1068.2 hPa | 0 mm | - | 0 W/m² | - |
| 1777716494 | 11.11° C | 74% | 1068.1 hPa | 0 mm | - | 0 W/m² | - |
| 1777716193 | 11.11° C | 75% | 1068.1 hPa | 0 mm | - | 0 W/m² | - |
| 1777715890 | 11.11° C | 76% | 1068 hPa | 0 mm | - | 0 W/m² | - |
| 1777715588 | 11.11° C | 79% | 1068 hPa | 0 mm | - | 0 W/m² | - |
| 1777715286 | 11.67° C | 79% | 1068.1 hPa | 0 mm | - | 0 W/m² | - |
| 1777714983 | 11.67° C | 76% | 1068 hPa | 0 mm | - | 0 W/m² | - |
| 1777714680 | 11.67° C | 74% | 1068.1 hPa | 0 mm | - | 0 W/m² | - |
| 1777714379 | 11.67° C | 73% | 1068 hPa | 0 mm | - | 0 W/m² | - |
| 1777714076 | 12.22° C | 73% | 1068.4 hPa | 0 mm | - | 0 W/m² | - |
| 1777713774 | 12.22° C | 73% | 1068.1 hPa | 0 mm | - | 0 W/m² | - |
| 1777713470 | 12.22° C | 72% | 1068 hPa | 0 mm | - | 0 W/m² | - |
| 1777713167 | 12.22° C | 73% | 1068.1 hPa | 0 mm | - | 0 W/m² | - |
| 1777712864 | 12.22° C | 73% | 1067.9 hPa | 0 mm | - | 0 W/m² | - |
| 1777712561 | 12.22° C | 73% | 1068.1 hPa | 0 mm | - | 0 W/m² | - |
| 1777712258 | 12.22° C | 73% | 1067.9 hPa | 0 mm | - | 0 W/m² | - |
| 1777711954 | 12.22° C | 72% | 1067.6 hPa | 0 mm | - | 0 W/m² | - |
| 1777711652 | 12.22° C | 72% | 1067.6 hPa | 0 mm | - | 0 W/m² | - |
| 1777711351 | 12.22° C | 72% | 1067.9 hPa | 0 mm | - | 0 W/m² | - |
| 1777711049 | 12.78° C | 71% | 1067.9 hPa | 0 mm | - | 0 W/m² | - |
| 1777710745 | 12.78° C | 71% | 1067.8 hPa | 0 mm | - | 0 W/m² | - |
* Rain latest hour (hover to see other rain measurements)
** Current wind speed in m/s (hover to see current wind gust speed)